Crosby, ND

7:59 AM CDT on July 21, 2017 (GMT -0500)
Crosby

Weather History for KD50 - February, 2014

Change the Weather History Date:

Friday, February 21, 2014

  Actual Average (KISN) Record (KISN)
Temperature  
Mean Temperature -1 °F -  
Max Temperature 5 °F 33 °F 58 °F (1984)
Min Temperature -7 °F 13 °F -29 °F (1918)
Degree Days  
Heating Degree Days 66    
Moisture  
Dew Point -6 °F    
Average Humidity 80    
Maximum Humidity 92    
Minimum Humidity 72    
Precipitation  
Precipitation 0.00 in - - ()
Sea Level Pressure  
Sea Level Pressure 29.82 in    
Wind  
Wind Speed 9 mph (NW)    
Max Wind Speed 20 mph    
Max Gust Speed 24 mph    
Visibility 10 miles    
Events      
Averages and records for this station are not official NWS values.
T = Trace of Precipitation, MM = Missing Value Source: NWS Daily Summary

Daily Weather History Graph

Daily Weather History Graph

Search for Another Location

Airport or City:

Trip Planner

Search our weather history database for the weather conditions in past years. The results will help you decide how hot, cold, wet, or windy it might be!

Date:

Astronomy

Feb. 21, 2014 Rise Set
Actual Time 7:50 AM CST 6:23 PM CST
Civil Twilight 7:18 AM CST 6:56 PM CST
Nautical Twilight 6:41 AM CST 7:32 PM CST
Astronomical Twilight 6:05 AM CST 8:09 PM CST
Moon 12:52 AM CST 10:41 AM CST
Length of Visible Light 11h 37m
Length of Day
10h 33m
Waning Gibbous, 60% of the Moon is Illuminated
Feb 21
Waning Gibbous
Feb 22
Last Quarter
Mar 1
New
Mar 8
First Quarter
Mar 16
Full

Hourly Weather History & Observations

Time (CST) Temp. Windchill Dew Point Humidity Pressure Visibility Wind Dir Wind Speed Gust Speed Precip Events Conditions
12:15 AM -4.0 °F -14.6 °F -7.6 °F 85% 29.76 in 10.0 mi NE 4.6 mph - N/A   Unknown
12:35 AM -4.0 °F -12.4 °F -9.4 °F 78% 29.76 in 10.0 mi NW 3.5 mph - N/A   Unknown
12:55 AM -4.0 °F -14.6 °F -7.6 °F 85% 29.75 in 10.0 mi NW 4.6 mph - N/A   Unknown
1:15 AM -4.0 °F -14.6 °F -9.4 °F 78% 29.75 in 10.0 mi NNW 4.6 mph - N/A   Unknown
1:35 AM -4.0 °F -14.6 °F -7.6 °F 85% 29.74 in 10.0 mi NNW 4.6 mph - N/A   Unknown
1:55 AM -4.0 °F -14.6 °F -7.6 °F 85% 29.74 in 10.0 mi NNW 4.6 mph - N/A   Unknown
2:15 AM -4.0 °F -16.3 °F -7.6 °F 85% 29.74 in 10.0 mi WNW 5.8 mph - N/A   Unknown
2:35 AM -4.0 °F -16.3 °F -7.6 °F 85% 29.74 in 10.0 mi WNW 5.8 mph - N/A   Unknown
2:55 AM -4.0 °F -16.3 °F -9.4 °F 78% 29.74 in 10.0 mi WNW 5.8 mph - N/A   Unknown
3:15 AM -5.8 °F -21.2 °F -9.4 °F 84% 29.75 in 10.0 mi WNW 8.1 mph - N/A   Unknown
3:35 AM -7.6 °F -24.6 °F -11.2 °F 84% 29.75 in 10.0 mi WNW 9.2 mph - N/A   Unknown
3:55 AM -7.6 °F -25.7 °F -11.2 °F 84% 29.75 in 10.0 mi WNW 10.4 mph - N/A   Unknown
4:15 AM -7.6 °F -22.1 °F -11.2 °F 84% 29.75 in 10.0 mi NW 6.9 mph - N/A   Unknown
4:35 AM -7.6 °F -23.4 °F -11.2 °F 84% 29.75 in 10.0 mi NW 8.1 mph - N/A   Unknown
4:55 AM -7.6 °F -22.1 °F -11.2 °F 84% 29.76 in 10.0 mi WNW 6.9 mph - N/A   Unknown
5:15 AM -7.6 °F -24.6 °F -11.2 °F 84% 29.76 in 10.0 mi WNW 9.2 mph - N/A   Unknown
5:35 AM -5.8 °F -23.4 °F -9.4 °F 84% 29.76 in 10.0 mi WNW 10.4 mph - N/A   Unknown
5:55 AM -4.0 °F -20.2 °F -9.4 °F 78% 29.76 in 10.0 mi WNW 9.2 mph - N/A   Unknown
6:15 AM -5.8 °F -21.2 °F -9.4 °F 84% 29.77 in 10.0 mi WNW 8.1 mph - N/A   Unknown
6:35 AM -7.6 °F -24.6 °F -11.2 °F 84% 29.78 in 10.0 mi WNW 9.2 mph - N/A   Unknown
6:55 AM -7.6 °F -24.6 °F -11.2 °F 84% 29.78 in 10.0 mi NW 9.2 mph - N/A   Unknown
7:15 AM -7.6 °F -23.4 °F -11.2 °F 84% 29.78 in 10.0 mi NW 8.1 mph - N/A   Unknown
7:35 AM -7.6 °F -23.4 °F -13.0 °F 77% 29.78 in 10.0 mi NW 8.1 mph - N/A   Unknown
7:55 AM -7.6 °F -23.4 °F -13.0 °F 77% 29.79 in 10.0 mi NW 8.1 mph - N/A   Unknown
8:15 AM -7.6 °F -22.1 °F -11.2 °F 84% 29.80 in 10.0 mi NW 6.9 mph - N/A   Unknown
8:35 AM -7.6 °F -23.4 °F -11.2 °F 84% 29.80 in 10.0 mi NW 8.1 mph - N/A   Unknown
8:55 AM -5.8 °F -22.4 °F -9.4 °F 84% 29.80 in 10.0 mi NW 9.2 mph - N/A   Unknown
9:15 AM -4.0 °F -20.2 °F -9.4 °F 78% 29.80 in 10.0 mi NNW 9.2 mph - N/A   Unknown
9:35 AM -4.0 °F -20.2 °F -9.4 °F 78% 29.80 in 10.0 mi NNW 9.2 mph - N/A   Unknown
9:55 AM -4.0 °F -20.2 °F -7.6 °F 85% 29.80 in 10.0 mi NW 9.2 mph - N/A   Unknown
10:15 AM -2.2 °F -18.9 °F -7.6 °F 78% 29.80 in 10.0 mi NW 10.4 mph - N/A   Unknown
10:35 AM -2.2 °F -18.9 °F -5.8 °F 85% 29.80 in 10.0 mi NNW 10.4 mph - N/A   Unknown
10:55 AM -0.4 °F -16.7 °F -4.0 °F 85% 29.81 in 10.0 mi NW 10.4 mph - N/A   Unknown
11:15 AM -0.4 °F -17.6 °F -2.2 °F 92% 29.81 in 10.0 mi NW 11.5 mph - N/A   Unknown
11:35 AM -0.4 °F -17.6 °F -2.2 °F 92% 29.81 in 10.0 mi NNW 11.5 mph - N/A   Unknown
11:55 AM 1.4 °F -16.9 °F -2.2 °F 85% 29.82 in 10.0 mi NW 13.8 mph - N/A   Unknown
12:15 PM 1.4 °F -13.5 °F -0.4 °F 92% 29.82 in 10.0 mi NW 9.2 mph - N/A   Unknown
12:35 PM 1.4 °F -16.1 °F -0.4 °F 92% 29.82 in 10.0 mi NW 12.7 mph - N/A   Unknown
12:55 PM 3.2 °F -14.6 °F -0.4 °F 85% 29.81 in 10.0 mi NW 13.8 mph - N/A   Unknown
1:15 PM 5.0 °F -12.3 °F -0.4 °F 78% 29.80 in 10.0 mi NW 13.8 mph - N/A   Unknown
1:35 PM 5.0 °F -12.3 °F -2.2 °F 72% 29.81 in 10.0 mi NW 13.8 mph - N/A   Unknown
1:55 PM 5.0 °F -10.8 °F -2.2 °F 72% 29.82 in 10.0 mi NW 11.5 mph 17.3 mph N/A   Unknown
2:15 PM 5.0 °F -13.0 °F -2.2 °F 72% 29.81 in 10.0 mi NW 15.0 mph 18.4 mph N/A   Unknown
2:35 PM 5.0 °F -11.6 °F -2.2 °F 72% 29.82 in 10.0 mi NNW 12.7 mph 17.3 mph N/A   Unknown
2:55 PM 5.0 °F -13.0 °F -2.2 °F 72% 29.82 in 10.0 mi NW 15.0 mph - N/A   Unknown
3:15 PM 5.0 °F -14.2 °F -2.2 °F 72% 29.83 in 10.0 mi NW 17.3 mph - N/A   Unknown
3:35 PM 5.0 °F -13.0 °F -2.2 °F 72% 29.84 in 10.0 mi NNW 15.0 mph - N/A   Unknown
3:55 PM 5.0 °F -14.2 °F -2.2 °F 72% 29.85 in 10.0 mi NW 17.3 mph 21.9 mph N/A   Unknown
4:15 PM 5.0 °F -13.6 °F -2.2 °F 72% 29.86 in 10.0 mi NW 16.1 mph - N/A   Unknown
4:35 PM 5.0 °F -13.6 °F -2.2 °F 72% 29.86 in 10.0 mi NW 16.1 mph - N/A   Unknown
4:55 PM 5.0 °F -13.0 °F -2.2 °F 72% 29.86 in 10.0 mi NW 15.0 mph - N/A   Unknown
5:15 PM 5.0 °F -15.2 °F -2.2 °F 72% 29.86 in 10.0 mi NW 19.6 mph 24.2 mph N/A   Unknown
5:35 PM 5.0 °F -13.0 °F -2.2 °F 72% 29.86 in 10.0 mi NNW 15.0 mph - N/A   Unknown
5:55 PM 3.2 °F -13.9 °F -2.2 °F 78% 29.87 in 10.0 mi NW 12.7 mph - N/A   Unknown
6:15 PM 1.4 °F -15.3 °F -4.0 °F 78% 29.87 in 10.0 mi NW 11.5 mph - N/A   Unknown
6:35 PM 1.4 °F -12.5 °F -4.0 °F 78% 29.89 in 10.0 mi NW 8.1 mph - N/A   Unknown
6:55 PM 1.4 °F -16.1 °F -4.0 °F 78% 29.89 in 10.0 mi NW 12.7 mph - N/A   Unknown
7:15 PM 1.4 °F -14.5 °F -4.0 °F 78% 29.89 in 10.0 mi NW 10.4 mph - N/A   Unknown
7:35 PM 1.4 °F -15.3 °F -4.0 °F 78% 29.90 in 10.0 mi NW 11.5 mph - N/A   Unknown
7:55 PM -0.4 °F -16.7 °F -4.0 °F 85% 29.90 in 10.0 mi NW 10.4 mph - N/A   Unknown
8:15 PM -0.4 °F -19.2 °F -4.0 °F 85% 29.91 in 10.0 mi NW 13.8 mph - N/A   Unknown
8:35 PM -0.4 °F -19.9 °F -4.0 °F 85% 29.91 in 10.0 mi NW 15.0 mph - N/A   Unknown
8:55 PM -0.4 °F -19.2 °F -4.0 °F 85% 29.91 in 10.0 mi NW 13.8 mph - N/A   Unknown
9:15 PM -0.4 °F -20.5 °F -5.8 °F 78% 29.91 in 10.0 mi NW 16.1 mph 20.7 mph N/A   Unknown
9:35 PM -0.4 °F -19.2 °F -5.8 °F 78% 29.92 in 10.0 mi NW 13.8 mph - N/A   Unknown
9:55 PM -0.4 °F -17.6 °F -5.8 °F 78% 29.93 in 10.0 mi NW 11.5 mph - N/A   Unknown
10:15 PM -0.4 °F -17.6 °F -5.8 °F 78% 29.93 in 10.0 mi NW 11.5 mph - N/A   Unknown
10:35 PM -0.4 °F -17.6 °F -5.8 °F 78% 29.93 in 10.0 mi NW 11.5 mph - N/A   Unknown
10:55 PM -2.2 °F -19.9 °F -7.6 °F 78% 29.94 in 10.0 mi NW 11.5 mph - N/A   Unknown
11:15 PM -2.2 °F -19.9 °F -7.6 °F 78% 29.94 in 10.0 mi NW 11.5 mph - N/A   Unknown
11:35 PM -0.4 °F -19.2 °F -5.8 °F 78% 29.94 in 10.0 mi NW 13.8 mph - N/A   Unknown
11:55 PM -0.4 °F -19.9 °F -5.8 °F 78% 29.95 in 10.0 mi NW 15.0 mph - N/A   Unknown